Location: Ballingbuur
(53.0000°N, 5.7667°E)
Time: 05:54:27
(UTC+00:00)

Cosmos 2366 rocket - Pass Details

Date: 29 November 2020
Orbit: 955 x 997 km, 82.9° (Epoch: 23 January)

Event Time Altitude Azimuth Distance (km) Brightness Sun altitude
Rises 06:32:09 0° 187° (S) 3,699 7.3 -7.6°
Reaches altitude 10° 06:34:40 10° 187° (S) 2,751 6.6 -7.3°
Maximum altitude 06:41:00 88° 101° (E) 995 4.1 -6.4°
Drops below altitude 10° 06:47:19 10° 11° (N) 2,743 6.2 -5.6°
Sets 06:49:50 0° 11° (NNE) 3,688 6.8 -5.3°
